Time,TemperatureF,DewpointF,PressureIn,WindDirection,WindDirectionDegrees,WindSpeedMPH,WindSpeedGustMPH,Humidity,HourlyPrecipIn,Conditions,Clouds,dailyrainin,SoftwareType,DateUTC
2013-04-06 00:02:00,54.9,48.2,30.14,WNW,290,5.0,5.0,78,0.00,,CLR,0.00,VWS V14.01,2013-04-06 07:02:00,
2013-04-06 00:07:00,55.7,48.3,30.13,SSW,212,0.0,6.0,76,0.00,,CLR,0.00,VWS V14.01,2013-04-06 07:07:00,
2013-04-06 00:12:00,56.0,48.2,30.13,West,266,1.0,7.0,75,0.00,,CLR,0.00,VWS V14.01,2013-04-06 07:12:00,
2013-04-06 00:17:00,56.1,47.9,30.13,West,280,0.0,7.0,74,0.00,,CLR,0.00,VWS V14.01,2013-04-06 07:17:00,
2013-04-06 00:22:00,56.3,48.1,30.13,WNW,290,2.0,7.0,74,0.00,,CLR,0.00,VWS V14.01,2013-04-06 07:22:00,
2013-04-06 00:27:00,56.5,48.3,30.13,NNW,342,2.0,8.0,74,0.00,,CLR,0.00,VWS V14.01,2013-04-06 07:27:00,
2013-04-06 00:32:00,56.6,48.1,30.12,West,259,6.0,10.0,73,0.00,,CLR,0.00,VWS V14.01,2013-04-06 07:32:00,
2013-04-06 00:37:00,56.6,48.1,30.12,WSW,252,7.0,10.0,73,0.00,,CLR,0.00,VWS V14.01,2013-04-06 07:37:00,
2013-04-06 00:42:00,56.7,47.8,30.12,WSW,240,7.0,13.0,72,0.00,,CLR,0.00,VWS V14.01,2013-04-06 07:42:00,
2013-04-06 00:47:00,56.9,48.0,30.12,SSW,210,11.0,15.0,72,0.00,,CLR,0.00,VWS V14.01,2013-04-06 07:47:00,
2013-04-06 00:52:00,57.0,48.1,30.13,WSW,247,7.0,15.0,72,0.00,,CLR,0.00,VWS V14.01,2013-04-06 07:52:00,
2013-04-06 00:57:00,57.0,48.1,30.13,East,94,3.0,15.0,72,0.00,,CLR,0.00,VWS V14.01,2013-04-06 07:57:00,
2013-04-06 01:02:00,56.9,48.0,30.13,WSW,253,9.0,9.0,72,0.00,,FEW120,0.00,VWS V14.01,2013-04-06 08:02:00,
2013-04-06 01:07:00,56.9,48.0,30.13,SW,232,3.0,9.0,72,0.00,,FEW120,0.00,VWS V14.01,2013-04-06 08:07:00,
2013-04-06 01:12:00,56.7,48.2,30.13,SE,146,0.0,9.0,73,0.00,,FEW120,0.00,VWS V14.01,2013-04-06 08:12:00,
2013-04-06 01:18:00,56.5,48.3,30.13,ESE,103,0.0,9.0,74,0.00,,FEW120,0.00,VWS V14.01,2013-04-06 08:18:00,
2013-04-06 01:23:00,56.1,48.3,30.14,NW,310,2.0,9.0,75,0.00,,FEW120,0.00,VWS V14.01,2013-04-06 08:23:00,
2013-04-06 01:28:00,56.0,48.5,30.14,NW,316,0.0,9.0,76,0.00,,FEW120,0.00,VWS V14.01,2013-04-06 08:28:00,
2013-04-06 01:33:00,55.8,48.4,30.14,SE,146,0.0,2.0,76,0.00,,FEW120,0.00,VWS V14.01,2013-04-06 08:33:00,
2013-04-06 01:38:00,55.7,48.3,30.14,SSW,197,1.0,3.0,76,0.00,,FEW120,0.00,VWS V14.01,2013-04-06 08:38:00,
2013-04-06 01:43:00,55.7,48.3,30.14,SSW,204,0.0,3.0,76,0.00,,FEW120,0.00,VWS V14.01,2013-04-06 08:43:00,
2013-04-06 01:48:00,55.7,48.3,30.14,SW,222,0.0,3.0,76,0.00,,FEW120,0.00,VWS V14.01,2013-04-06 08:48:00,
2013-04-06 01:53:00,55.7,48.6,30.14,WSW,243,0.0,3.0,77,0.00,,FEW120,0.00,VWS V14.01,2013-04-06 08:53:00,
2013-04-06 01:58:00,55.7,48.6,30.14,SSW,204,0.0,3.0,77,0.00,,FEW120,0.00,VWS V14.01,2013-04-06 08:58:00,
2013-04-06 02:03:00,55.6,48.9,30.14,SSW,204,1.0,3.0,78,0.00,,OVC090,0.00,VWS V14.01,2013-04-06 09:03:00,
2013-04-06 02:08:00,55.5,48.8,30.14,SW,233,1.0,3.0,78,0.00,,OVC090,0.00,VWS V14.01,2013-04-06 09:08:00,
2013-04-06 02:13:00,55.5,48.8,30.14,SSE,166,2.0,3.0,78,0.00,,OVC090,0.00,VWS V14.01,2013-04-06 09:13:00,
2013-04-06 02:18:00,55.4,49.0,30.14,SSW,200,3.0,5.0,79,0.00,,OVC090,0.00,VWS V14.01,2013-04-06 09:18:00,
2013-04-06 02:23:00,55.3,49.2,30.14,SSW,203,2.0,5.0,80,0.00,,OVC090,0.00,VWS V14.01,2013-04-06 09:23:00,
2013-04-06 02:28:00,55.1,49.0,30.14,WSW,239,1.0,5.0,80,0.00,,OVC090,0.00,VWS V14.01,2013-04-06 09:28:00,
2013-04-06 02:33:00,55.2,49.2,30.14,SSW,195,2.0,4.0,80,0.00,,OVC090,0.00,VWS V14.01,2013-04-06 09:33:00,
2013-04-06 02:38:00,55.2,49.2,30.14,SW,233,1.0,4.0,80,0.00,,OVC090,0.00,VWS V14.01,2013-04-06 09:38:00,
2013-04-06 02:43:00,55.2,49.2,30.13,South,172,4.0,5.0,80,0.00,,OVC090,0.00,VWS V14.01,2013-04-06 09:43:00,
2013-04-06 02:48:00,55.3,49.2,30.13,SSE,167,2.0,5.0,80,0.00,,OVC090,0.00,VWS V14.01,2013-04-06 09:48:00,
2013-04-06 02:53:00,55.3,49.6,30.13,SSW,207,2.0,5.0,81,0.00,,OVC090,0.00,VWS V14.01,2013-04-06 09:53:00,
2013-04-06 02:58:00,55.2,49.5,30.13,SSE,159,1.0,5.0,81,0.00,,OVC090,0.00,VWS V14.01,2013-04-06 09:58:00,
2013-04-06 03:03:00,55.2,49.5,30.13,SSW,197,2.0,3.0,81,0.00,,OVC085,0.00,VWS V14.01,2013-04-06 10:03:00,
2013-04-06 03:08:00,55.2,49.8,30.13,SE,129,2.0,4.0,82,0.00,,OVC085,0.00,VWS V14.01,2013-04-06 10:08:00,
2013-04-06 03:13:00,55.1,49.7,30.13,SSE,150,1.0,4.0,82,0.00,,OVC085,0.00,VWS V14.01,2013-04-06 10:13:00,
2013-04-06 03:18:00,55.0,49.6,30.13,SSE,150,0.0,4.0,82,0.00,,OVC085,0.00,VWS V14.01,2013-04-06 10:18:00,
2013-04-06 03:23:00,54.9,49.5,30.13,SE,129,2.0,4.0,82,0.00,,OVC085,0.00,VWS V14.01,2013-04-06 10:23:00,
2013-04-06 03:28:00,54.8,49.7,30.12,SE,134,1.0,4.0,83,0.00,,OVC085,0.00,VWS V14.01,2013-04-06 10:28:00,
2013-04-06 03:33:00,54.6,49.5,30.12,South,191,1.0,3.0,83,0.00,,OVC085,0.00,VWS V14.01,2013-04-06 10:33:00,
2013-04-06 03:38:00,54.5,49.5,30.12,WSW,254,0.0,4.0,83,0.00,,OVC085,0.00,VWS V14.01,2013-04-06 10:38:00,
2013-04-06 03:43:00,54.4,49.7,30.12,SSW,207,2.0,4.0,84,0.00,,OVC085,0.00,VWS V14.01,2013-04-06 10:43:00,
2013-04-06 03:48:00,54.3,49.6,30.12,SSE,163,1.0,5.0,84,0.00,,OVC085,0.00,VWS V14.01,2013-04-06 10:48:00,
2013-04-06 03:53:00,54.2,49.5,30.12,SE,142,1.0,5.0,84,0.00,,OVC085,0.00,VWS V14.01,2013-04-06 10:53:00,
2013-04-06 03:58:00,54.0,49.6,30.12,SE,137,0.0,5.0,85,0.00,,OVC085,0.00,VWS V14.01,2013-04-06 10:58:00,
2013-04-06 04:03:00,53.9,49.5,30.13,SSW,193,3.0,4.0,85,0.00,,FEW075,0.00,VWS V14.01,2013-04-06 11:03:00,
2013-04-06 04:08:00,53.9,49.5,30.12,SSW,194,2.0,5.0,85,0.00,,FEW075,0.00,VWS V14.01,2013-04-06 11:08:00,
2013-04-06 04:13:00,54.0,49.6,30.12,SW,215,1.0,5.0,85,0.00,,FEW075,0.00,VWS V14.01,2013-04-06 11:13:00,
2013-04-06 04:18:00,54.1,49.7,30.12,SE,131,3.0,5.0,85,0.00,,FEW075,0.00,VWS V14.01,2013-04-06 11:18:00,
2013-04-06 04:23:00,54.1,49.7,30.12,SSE,153,1.0,5.0,85,0.00,,FEW075,0.00,VWS V14.01,2013-04-06 11:23:00,
2013-04-06 04:28:00,54.2,49.5,30.12,SW,221,3.0,6.0,84,0.00,,FEW075,0.00,VWS V14.01,2013-04-06 11:28:00,
2013-04-06 04:33:00,54.3,49.6,30.12,SW,219,0.0,3.0,84,0.00,,FEW075,0.00,VWS V14.01,2013-04-06 11:33:00,
2013-04-06 04:38:00,54.4,49.7,30.12,SW,221,4.0,7.0,84,0.00,,FEW075,0.00,VWS V14.01,2013-04-06 11:38:00,
2013-04-06 04:43:00,54.4,49.7,30.12,South,191,2.0,7.0,84,0.00,,FEW075,0.00,VWS V14.01,2013-04-06 11:43:00,
2013-04-06 04:48:00,54.4,49.7,30.13,SW,221,2.0,7.0,84,0.00,,FEW075,0.00,VWS V14.01,2013-04-06 11:48:00,
2013-04-06 04:53:00,54.4,49.7,30.13,South,191,4.0,7.0,84,0.00,,FEW075,0.00,VWS V14.01,2013-04-06 11:53:00,
2013-04-06 04:58:00,54.4,49.7,30.12,South,176,2.0,7.0,84,0.00,,FEW075,0.00,VWS V14.01,2013-04-06 11:58:00,
2013-04-06 05:03:00,54.3,49.6,30.13,South,184,2.0,3.0,84,0.00,,BKN100,0.00,VWS V14.01,2013-04-06 12:03:00,
2013-04-06 05:08:00,54.2,49.5,30.13,South,176,1.0,4.0,84,0.00,,BKN100,0.00,VWS V14.01,2013-04-06 12:08:00,
2013-04-06 05:13:00,54.3,49.6,30.12,SSE,167,3.0,6.0,84,0.00,,BKN100,0.00,VWS V14.01,2013-04-06 12:13:00,
2013-04-06 05:18:00,54.5,49.5,30.12,SW,215,3.0,7.0,83,0.00,,BKN100,0.00,VWS V14.01,2013-04-06 12:18:00,
2013-04-06 05:23:00,54.7,49.3,30.13,SW,222,4.0,7.0,82,0.00,,BKN100,0.00,VWS V14.01,2013-04-06 12:23:00,
2013-04-06 05:28:00,54.9,49.2,30.13,SSE,160,4.0,7.0,81,0.00,,BKN100,0.00,VWS V14.01,2013-04-06 12:28:00,
2013-04-06 05:33:00,55.0,49.6,30.13,SSW,200,2.0,5.0,82,0.00,,BKN100,0.00,VWS V14.01,2013-04-06 12:33:00,
2013-04-06 05:38:00,55.0,49.3,30.13,WSW,246,3.0,5.0,81,0.00,,BKN100,0.00,VWS V14.01,2013-04-06 12:38:00,
2013-04-06 05:43:00,55.0,49.9,30.13,SW,214,3.0,5.0,83,0.00,,BKN100,0.00,VWS V14.01,2013-04-06 12:43:00,
2013-04-06 05:49:00,54.7,50.0,30.14,SSE,152,1.0,5.0,84,0.00,,BKN100,0.00,VWS V14.01,2013-04-06 12:49:00,
2013-04-06 05:54:00,54.5,49.8,30.14,SSW,195,1.0,5.0,84,0.00,,BKN100,0.00,VWS V14.01,2013-04-06 12:54:00,
2013-04-06 05:59:00,54.6,49.9,30.13,SW,225,1.0,5.0,84,0.00,,BKN100,0.00,VWS V14.01,2013-04-06 12:59:00,
2013-04-06 06:04:00,54.6,49.9,30.13,South,190,5.0,5.0,84,0.00,,OVC090,0.00,VWS V14.01,2013-04-06 13:04:00,
2013-04-06 06:09:00,54.6,49.9,30.13,SSE,166,3.0,5.0,84,0.00,,OVC090,0.00,VWS V14.01,2013-04-06 13:09:00,
2013-04-06 06:14:00,54.5,50.1,30.12,SSE,150,2.0,5.0,85,0.00,,OVC090,0.00,VWS V14.01,2013-04-06 13:14:00,
2013-04-06 06:19:00,54.4,50.0,30.12,South,176,2.0,6.0,85,0.00,,OVC090,0.00,VWS V14.01,2013-04-06 13:19:00,
2013-04-06 06:24:00,54.4,50.0,30.13,SSW,210,1.0,6.0,85,0.00,,OVC090,0.00,VWS V14.01,2013-04-06 13:24:00,
2013-04-06 06:29:00,54.4,50.3,30.13,SSW,210,3.0,6.0,86,0.00,,OVC090,0.00,VWS V14.01,2013-04-06 13:29:00,
2013-04-06 06:34:00,54.4,50.3,30.13,SW,231,3.0,5.0,86,0.00,,OVC090,0.00,VWS V14.01,2013-04-06 13:34:00,
2013-04-06 06:39:00,54.3,50.2,30.13,SSE,160,2.0,6.0,86,0.00,,OVC090,0.00,VWS V14.01,2013-04-06 13:39:00,
2013-04-06 06:44:00,54.3,50.2,30.14,SSW,211,1.0,7.0,86,0.00,,OVC090,0.00,VWS V14.01,2013-04-06 13:44:00,
2013-04-06 06:49:00,54.4,50.3,30.14,SE,135,5.0,7.0,86,0.00,,OVC090,0.00,VWS V14.01,2013-04-06 13:49:00,
2013-04-06 06:54:00,54.4,50.3,30.14,South,190,2.0,7.0,86,0.00,,OVC090,0.00,VWS V14.01,2013-04-06 13:54:00,
2013-04-06 06:59:00,54.4,50.3,30.14,SE,129,1.0,7.0,86,0.00,,OVC090,0.00,VWS V14.01,2013-04-06 13:59:00,
2013-04-06 07:05:00,54.3,50.2,30.14,SE,134,2.0,7.0,86,0.00,,OVC085,0.00,VWS V14.01,2013-04-06 14:05:00,
2013-04-06 07:10:00,54.2,50.4,30.14,SW,219,4.0,7.0,87,0.00,,OVC085,0.00,VWS V14.01,2013-04-06 14:10:00,
2013-04-06 07:15:00,54.2,50.1,30.14,SE,128,6.0,7.0,86,0.00,,OVC085,0.00,VWS V14.01,2013-04-06 14:15:00,
2013-04-06 07:20:00,54.3,50.5,30.14,South,187,3.0,10.0,87,0.00,,OVC085,0.00,VWS V14.01,2013-04-06 14:20:00,
2013-04-06 07:25:00,54.4,50.3,30.14,SW,225,6.0,10.0,86,0.00,,OVC085,0.00,VWS V14.01,2013-04-06 14:25:00,
2013-04-06 07:30:00,54.5,50.4,30.14,ESE,110,6.0,10.0,86,0.00,,OVC085,0.00,VWS V14.01,2013-04-06 14:30:00,
2013-04-06 07:35:00,54.6,50.5,30.14,SSW,205,2.0,7.0,86,0.00,,OVC085,0.00,VWS V14.01,2013-04-06 14:35:00,
2013-04-06 07:40:00,54.7,50.6,30.14,South,173,5.0,7.0,86,0.00,,OVC085,0.00,VWS V14.01,2013-04-06 14:40:00,
2013-04-06 07:45:00,54.8,50.7,30.14,SSE,153,7.0,10.0,86,0.00,,OVC085,0.00,VWS V14.01,2013-04-06 14:45:00,
2013-04-06 07:50:00,55.1,50.7,30.14,South,191,4.0,10.0,85,0.00,,OVC085,0.00,VWS V14.01,2013-04-06 14:50:00,
2013-04-06 07:55:00,55.3,50.9,30.15,South,174,4.0,10.0,85,0.00,,OVC085,0.00,VWS V14.01,2013-04-06 14:55:00,
2013-04-06 08:00:00,55.4,51.0,30.15,SSW,210,8.0,10.0,85,0.00,,OVC085,0.00,VWS V14.01,2013-04-06 15:00:00,
2013-04-06 08:05:00,55.5,51.1,30.15,SSE,159,3.0,8.0,85,0.00,,FEW080,0.00,VWS V14.01,2013-04-06 15:05:00,
2013-04-06 08:10:00,55.6,50.8,30.15,South,186,2.0,8.0,84,0.00,,FEW080,0.00,VWS V14.01,2013-04-06 15:10:00,
2013-04-06 08:15:00,55.8,51.0,30.15,SW,221,6.0,8.0,84,0.00,,FEW080,0.00,VWS V14.01,2013-04-06 15:15:00,
2013-04-06 08:20:00,55.9,51.1,30.15,South,184,4.0,8.0,84,0.00,,FEW080,0.00,VWS V14.01,2013-04-06 15:20:00,
2013-04-06 08:25:00,55.9,51.1,30.15,SW,217,4.0,9.0,84,0.00,,FEW080,0.00,VWS V14.01,2013-04-06 15:25:00,
2013-04-06 08:30:00,55.9,51.1,30.15,SSW,193,3.0,9.0,84,0.00,,FEW080,0.00,VWS V14.01,2013-04-06 15:30:00,
2013-04-06 08:35:00,55.9,51.1,30.15,SSW,200,6.0,8.0,84,0.00,,FEW080,0.00,VWS V14.01,2013-04-06 15:35:00,
2013-04-06 08:41:00,56.1,51.3,30.15,SW,221,4.0,9.0,84,0.00,,FEW080,0.00,VWS V14.01,2013-04-06 15:41:00,
2013-04-06 08:46:00,56.2,51.4,30.15,South,191,2.0,9.0,84,0.00,,FEW080,0.00,VWS V14.01,2013-04-06 15:46:00,
2013-04-06 08:51:00,56.3,51.5,30.15,South,188,2.0,9.0,84,0.00,,FEW080,0.00,VWS V14.01,2013-04-06 15:51:00,
2013-04-06 08:56:00,56.3,51.5,30.15,SSW,203,3.0,9.0,84,0.00,,FEW080,0.00,VWS V14.01,2013-04-06 15:56:00,
2013-04-06 09:01:00,56.4,52.0,30.15,South,190,2.0,2.0,85,0.00,,BKN038,0.00,VWS V14.01,2013-04-06 16:01:00,
2013-04-06 09:06:00,56.7,51.9,30.15,South,181,6.0,7.0,84,0.00,,BKN038,0.00,VWS V14.01,2013-04-06 16:06:00,
2013-04-06 09:11:00,56.9,52.1,30.16,SSW,200,4.0,7.0,84,0.00,,BKN038,0.00,VWS V14.01,2013-04-06 16:11:00,
2013-04-06 09:16:00,57.1,52.0,30.16,SW,236,3.0,7.0,83,0.00,,BKN038,0.00,VWS V14.01,2013-04-06 16:16:00,
2013-04-06 09:22:00,57.3,52.2,30.16,SSE,150,2.0,8.0,83,0.00,,BKN038,0.00,VWS V14.01,2013-04-06 16:22:00,
2013-04-06 09:27:00,57.6,52.5,30.15,SSW,201,3.0,8.0,83,0.00,,BKN038,0.00,VWS V14.01,2013-04-06 16:27:00,
2013-04-06 09:32:00,57.8,52.3,30.15,SSE,165,3.0,5.0,82,0.00,,BKN038,0.00,VWS V14.01,2013-04-06 16:32:00,
2013-04-06 09:37:00,57.7,52.6,30.15,SE,132,5.0,9.0,83,0.00,,BKN038,0.00,VWS V14.01,2013-04-06 16:37:00,
2013-04-06 09:42:00,57.7,52.2,30.15,South,183,3.0,9.0,82,0.00,,BKN038,0.00,VWS V14.01,2013-04-06 16:42:00,
2013-04-06 09:47:00,57.8,52.7,30.15,SSW,197,2.0,9.0,83,0.00,,BKN038,0.00,VWS V14.01,2013-04-06 16:47:00,
2013-04-06 09:52:00,57.6,52.8,30.16,SSE,158,4.0,9.0,84,0.00,,BKN038,0.00,VWS V14.01,2013-04-06 16:52:00,
2013-04-06 09:57:00,57.6,52.8,30.16,SSE,149,3.0,9.0,84,0.00,,BKN038,0.00,VWS V14.01,2013-04-06 16:57:00,
2013-04-06 10:02:00,57.6,52.8,30.16,ESE,105,2.0,5.0,84,0.00,,OVC023,0.00,VWS V14.01,2013-04-06 17:02:00,
2013-04-06 10:07:00,57.7,53.2,30.16,SSE,153,2.0,5.0,85,0.00,,OVC023,0.00,VWS V14.01,2013-04-06 17:07:00,
2013-04-06 10:12:00,57.8,53.0,30.16,ESE,108,3.0,5.0,84,0.00,,OVC023,0.00,VWS V14.01,2013-04-06 17:12:00,
2013-04-06 10:17:00,57.8,53.0,30.16,South,178,2.0,5.0,84,0.00,,OVC023,0.00,VWS V14.01,2013-04-06 17:17:00,
2013-04-06 10:22:00,57.7,53.2,30.15,South,170,6.0,7.0,85,0.00,,OVC023,0.00,VWS V14.01,2013-04-06 17:22:00,
2013-04-06 10:27:00,57.6,53.1,30.16,SW,215,4.0,7.0,85,0.00,,OVC023,0.00,VWS V14.01,2013-04-06 17:27:00,
2013-04-06 10:32:00,57.5,53.3,30.16,SSE,160,1.0,7.0,86,0.00,,OVC023,0.00,VWS V14.01,2013-04-06 17:32:00,
2013-04-06 10:37:00,57.4,53.6,30.16,SSE,166,0.0,7.0,87,0.00,,OVC023,0.00,VWS V14.01,2013-04-06 17:37:00,
2013-04-06 10:42:00,57.7,53.5,30.16,SSE,162,3.0,7.0,86,0.00,,OVC023,0.00,VWS V14.01,2013-04-06 17:42:00,
2013-04-06 10:48:00,58.2,53.7,30.16,SE,128,0.0,7.0,85,0.00,,OVC023,0.00,VWS V14.01,2013-04-06 17:48:00,
2013-04-06 10:53:00,58.8,53.7,30.16,SW,221,3.0,7.0,83,0.00,,OVC023,0.00,VWS V14.01,2013-04-06 17:53:00,
2013-04-06 10:58:00,59.4,54.2,30.16,West,262,4.0,7.0,83,0.00,,OVC023,0.00,VWS V14.01,2013-04-06 17:58:00,
2013-04-06 11:03:00,59.8,54.3,30.16,SE,146,5.0,7.0,82,0.00,,OVC012,0.00,VWS V14.01,2013-04-06 18:03:00,
2013-04-06 11:08:00,59.9,54.4,30.16,South,191,4.0,9.0,82,0.00,,OVC012,0.00,VWS V14.01,2013-04-06 18:08:00,
2013-04-06 11:13:00,60.2,54.0,30.17,South,181,5.0,9.0,80,0.00,,OVC012,0.00,VWS V14.01,2013-04-06 18:13:00,
2013-04-06 11:18:00,60.4,54.5,30.17,South,169,8.0,10.0,81,0.00,,OVC012,0.00,VWS V14.01,2013-04-06 18:18:00,
2013-04-06 11:23:00,60.3,54.1,30.17,ESE,117,2.0,10.0,80,0.00,,OVC012,0.00,VWS V14.01,2013-04-06 18:23:00,
2013-04-06 11:28:00,60.5,54.7,30.17,South,169,6.0,10.0,81,0.00,,OVC012,0.00,VWS V14.01,2013-04-06 18:28:00,
2013-04-06 11:33:00,60.4,54.5,30.17,SSW,207,1.0,10.0,81,0.00,,OVC012,0.00,VWS V14.01,2013-04-06 18:33:00,
2013-04-06 11:38:00,60.7,54.8,30.17,SSW,200,1.0,10.0,81,0.00,,OVC012,0.00,VWS V14.01,2013-04-06 18:38:00,
2013-04-06 11:43:00,61.2,54.3,30.17,SE,134,2.0,10.0,78,0.00,,OVC012,0.00,VWS V14.01,2013-04-06 18:43:00,
2013-04-06 11:48:00,61.4,54.5,30.17,SE,146,3.0,10.0,78,0.00,,OVC012,0.00,VWS V14.01,2013-04-06 18:48:00,
2013-04-06 11:53:00,61.9,55.0,30.17,SE,145,4.0,10.0,78,0.00,,OVC012,0.00,VWS V14.01,2013-04-06 18:53:00,
2013-04-06 11:58:00,62.3,55.0,30.17,South,191,5.0,10.0,77,0.00,,OVC012,0.00,VWS V14.01,2013-04-06 18:58:00,
2013-04-06 12:03:00,63.2,55.2,30.17,SSW,200,3.0,5.0,75,0.00,,OVC026,0.00,VWS V14.01,2013-04-06 19:03:00,
2013-04-06 12:08:00,64.1,54.9,30.17,SSW,210,1.0,8.0,72,0.00,,OVC026,0.00,VWS V14.01,2013-04-06 19:08:00,
2013-04-06 12:13:00,64.6,55.0,30.17,SSW,193,3.0,8.0,71,0.00,,OVC026,0.00,VWS V14.01,2013-04-06 19:13:00,
2013-04-06 12:18:00,64.7,54.7,30.16,South,176,2.0,10.0,70,0.00,,OVC026,0.00,VWS V14.01,2013-04-06 19:18:00,
2013-04-06 12:23:00,64.9,54.5,30.16,South,172,1.0,10.0,69,0.00,,OVC026,0.00,VWS V14.01,2013-04-06 19:23:00,
2013-04-06 12:28:00,65.5,54.7,30.16,SSE,159,4.0,10.0,68,0.00,,OVC026,0.00,VWS V14.01,2013-04-06 19:28:00,
2013-04-06 12:33:00,66.0,54.7,30.16,SE,136,2.0,7.0,67,0.00,,OVC026,0.00,VWS V14.01,2013-04-06 19:33:00,
2013-04-06 12:38:00,66.2,54.1,30.16,WNW,286,3.0,9.0,65,0.00,,OVC026,0.00,VWS V14.01,2013-04-06 19:38:00,
2013-04-06 12:44:00,66.8,54.7,30.16,WSW,242,3.0,9.0,65,0.00,,OVC026,0.00,VWS V14.01,2013-04-06 19:44:00,
2013-04-06 12:49:00,67.1,55.0,30.15,South,191,4.0,9.0,65,0.00,,OVC026,0.00,VWS V14.01,2013-04-06 19:49:00,
2013-04-06 12:54:00,67.3,54.3,30.15,SW,235,12.0,12.0,63,0.00,,OVC026,0.00,VWS V14.01,2013-04-06 19:54:00,
2013-04-06 12:59:00,67.0,53.6,30.15,SSW,204,4.0,12.0,62,0.00,,OVC026,0.00,VWS V14.01,2013-04-06 19:59:00,
2013-04-06 13:04:00,67.3,54.7,30.15,SSE,162,7.0,7.0,64,0.00,,CLR,0.00,VWS V14.01,2013-04-06 20:04:00,
2013-04-06 13:09:00,67.8,54.3,30.14,SE,146,5.0,8.0,62,0.00,,CLR,0.00,VWS V14.01,2013-04-06 20:09:00,
2013-04-06 13:14:00,67.9,52.6,30.14,SSW,197,3.0,9.0,58,0.00,,CLR,0.00,VWS V14.01,2013-04-06 20:14:00,
2013-04-06 13:19:00,67.8,53.4,30.13,SSE,167,9.0,9.0,60,0.00,,CLR,0.00,VWS V14.01,2013-04-06 20:19:00,
2013-04-06 13:24:00,67.9,53.5,30.14,SSE,166,8.0,10.0,60,0.00,,CLR,0.00,VWS V14.01,2013-04-06 20:24:00,
2013-04-06 13:29:00,67.8,54.3,30.13,SSW,201,3.0,10.0,62,0.00,,CLR,0.00,VWS V14.01,2013-04-06 20:29:00,
2013-04-06 13:34:00,68.4,53.5,30.13,SW,218,3.0,5.0,59,0.00,,CLR,0.00,VWS V14.01,2013-04-06 20:34:00,
2013-04-06 13:39:00,68.5,53.6,30.13,SSW,194,3.0,10.0,59,0.00,,CLR,0.00,VWS V14.01,2013-04-06 20:39:00,
2013-04-06 13:45:00,68.4,53.1,30.13,SSW,204,1.0,10.0,58,0.00,,CLR,0.00,VWS V14.01,2013-04-06 20:45:00,
2013-04-06 13:50:00,68.1,53.7,30.13,North,359,3.0,10.0,60,0.00,,CLR,0.00,VWS V14.01,2013-04-06 20:50:00,
2013-04-06 13:55:00,68.3,53.9,30.12,SW,217,6.0,10.0,60,0.00,,CLR,0.00,VWS V14.01,2013-04-06 20:55:00,
2013-04-06 14:00:00,68.5,54.1,30.13,WSW,237,0.0,10.0,60,0.00,,CLR,0.00,VWS V14.01,2013-04-06 21:00:00,
2013-04-06 14:05:00,69.0,54.1,30.12,SE,136,4.0,8.0,59,0.00,,CLR,0.00,VWS V14.01,2013-04-06 21:05:00,
2013-04-06 14:10:00,69.1,54.2,30.12,SSW,200,4.0,11.0,59,0.00,,CLR,0.00,VWS V14.01,2013-04-06 21:10:00,
2013-04-06 14:15:00,69.0,54.1,30.12,South,180,3.0,12.0,59,0.00,,CLR,0.00,VWS V14.01,2013-04-06 21:15:00,
2013-04-06 14:20:00,68.9,54.5,30.12,SSE,151,6.0,12.0,60,0.00,,CLR,0.00,VWS V14.01,2013-04-06 21:20:00,
2013-04-06 14:25:00,68.9,54.0,30.12,SSW,198,8.0,12.0,59,0.00,,CLR,0.00,VWS V14.01,2013-04-06 21:25:00,
2013-04-06 14:30:00,69.2,54.7,30.12,SSW,204,5.0,12.0,60,0.00,,CLR,0.00,VWS V14.01,2013-04-06 21:30:00,
2013-04-06 14:35:00,69.6,54.7,30.12,SE,139,3.0,8.0,59,0.00,,CLR,0.00,VWS V14.01,2013-04-06 21:35:00,
2013-04-06 14:40:00,69.7,54.3,30.12,WSW,249,0.0,9.0,58,0.00,,CLR,0.00,VWS V14.01,2013-04-06 21:40:00,
2013-04-06 14:45:00,70.2,54.3,30.11,NW,316,0.0,9.0,57,0.00,,CLR,0.00,VWS V14.01,2013-04-06 21:45:00,
2013-04-06 14:50:00,70.8,53.3,30.11,South,183,5.0,9.0,54,0.00,,CLR,0.00,VWS V14.01,2013-04-06 21:50:00,
2013-04-06 14:55:00,70.2,53.3,30.11,SSE,155,3.0,10.0,55,0.00,,CLR,0.00,VWS V14.01,2013-04-06 21:55:00,
2013-04-06 15:00:00,69.8,52.4,30.11,SSW,194,5.0,11.0,54,0.00,,CLR,0.00,VWS V14.01,2013-04-06 22:00:00,
2013-04-06 15:05:00,69.4,52.0,30.11,NW,313,2.0,7.0,54,0.00,,CLR,0.00,VWS V14.01,2013-04-06 22:05:00,
2013-04-06 15:10:00,69.2,51.9,30.11,SW,226,2.0,10.0,54,0.00,,CLR,0.00,VWS V14.01,2013-04-06 22:10:00,
2013-04-06 15:15:00,69.5,52.2,30.11,West,277,5.0,10.0,54,0.00,,CLR,0.00,VWS V14.01,2013-04-06 22:15:00,
2013-04-06 15:20:00,69.5,52.2,30.11,SSE,158,2.0,10.0,54,0.00,,CLR,0.00,VWS V14.01,2013-04-06 22:20:00,
2013-04-06 15:25:00,69.5,51.1,30.11,SSE,149,1.0,10.0,52,0.00,,CLR,0.00,VWS V14.01,2013-04-06 22:25:00,
2013-04-06 15:30:00,69.6,51.7,30.11,WSW,237,2.0,10.0,53,0.00,,CLR,0.00,VWS V14.01,2013-04-06 22:30:00,
2013-04-06 15:35:00,69.6,51.7,30.10,WSW,257,2.0,13.0,53,0.00,,CLR,0.00,VWS V14.01,2013-04-06 22:35:00,
2013-04-06 15:40:00,69.9,52.5,30.11,South,173,3.0,13.0,54,0.00,,CLR,0.00,VWS V14.01,2013-04-06 22:40:00,
2013-04-06 15:45:00,69.8,52.4,30.10,NNW,342,4.0,13.0,54,0.00,,CLR,0.00,VWS V14.01,2013-04-06 22:45:00,
2013-04-06 15:51:00,69.5,52.6,30.10,SW,228,3.0,13.0,55,0.00,,CLR,0.00,VWS V14.01,2013-04-06 22:51:00,
2013-04-06 15:56:00,69.5,53.1,30.10,ESE,119,7.0,13.0,56,0.00,,CLR,0.00,VWS V14.01,2013-04-06 22:56:00,
2013-04-06 16:01:00,69.8,52.9,30.10,South,191,5.0,13.0,55,0.00,,CLR,0.00,VWS V14.01,2013-04-06 23:01:00,
2013-04-06 16:06:00,70.3,53.4,30.10,SW,214,4.0,8.0,55,0.00,,CLR,0.00,VWS V14.01,2013-04-06 23:06:00,
2013-04-06 16:11:00,70.7,53.3,30.10,South,181,3.0,8.0,54,0.00,,CLR,0.00,VWS V14.01,2013-04-06 23:11:00,
2013-04-06 16:16:00,70.6,53.2,30.10,SSE,163,1.0,9.0,54,0.00,,CLR,0.00,VWS V14.01,2013-04-06 23:16:00,
2013-04-06 16:21:00,70.7,53.3,30.10,SSW,194,4.0,9.0,54,0.00,,CLR,0.00,VWS V14.01,2013-04-06 23:21:00,
2013-04-06 16:26:00,71.1,53.6,30.10,South,188,3.0,9.0,54,0.00,,CLR,0.00,VWS V14.01,2013-04-06 23:26:00,
2013-04-06 16:31:00,70.9,53.4,30.09,South,174,2.0,4.0,54,0.00,,CLR,0.00,VWS V14.01,2013-04-06 23:31:00,
2013-04-06 16:37:00,70.7,53.8,30.09,SW,221,1.0,7.0,55,0.00,,CLR,0.00,VWS V14.01,2013-04-06 23:37:00,
2013-04-06 16:42:00,70.7,53.8,30.09,SW,224,4.0,7.0,55,0.00,,CLR,0.00,VWS V14.01,2013-04-06 23:42:00,
2013-04-06 16:47:00,70.1,53.7,30.09,ENE,75,2.0,8.0,56,0.00,,CLR,0.00,VWS V14.01,2013-04-06 23:47:00,
2013-04-06 16:52:00,69.7,53.8,30.09,South,174,4.0,8.0,57,0.00,,CLR,0.00,VWS V14.01,2013-04-06 23:52:00,
2013-04-06 16:57:00,69.1,53.7,30.09,South,191,6.0,9.0,58,0.00,,CLR,0.00,VWS V14.01,2013-04-06 23:57:00,
2013-04-06 17:02:00,68.7,54.3,30.08,ESE,117,2.0,8.0,60,0.00,,CLR,0.00,VWS V14.01,2013-04-07 00:02:00,
2013-04-06 17:07:00,68.5,53.6,30.08,South,184,4.0,8.0,59,0.00,,CLR,0.00,VWS V14.01,2013-04-07 00:07:00,
2013-04-06 17:12:00,68.2,53.8,30.08,SW,214,8.0,8.0,60,0.00,,CLR,0.00,VWS V14.01,2013-04-07 00:12:00,
2013-04-06 17:17:00,68.0,54.5,30.08,SSE,151,3.0,8.0,62,0.00,,CLR,0.00,VWS V14.01,2013-04-07 00:17:00,
2013-04-06 17:22:00,68.1,55.0,30.08,SSE,153,2.0,8.0,63,0.00,,CLR,0.00,VWS V14.01,2013-04-07 00:22:00,
2013-04-06 17:27:00,67.8,54.8,30.08,South,170,3.0,10.0,63,0.00,,CLR,0.00,VWS V14.01,2013-04-07 00:27:00,
2013-04-06 17:32:00,67.1,55.0,30.08,SE,143,1.0,5.0,65,0.00,,CLR,0.00,VWS V14.01,2013-04-07 00:32:00,
2013-04-06 17:37:00,66.8,54.7,30.08,SSW,204,6.0,8.0,65,0.00,,CLR,0.00,VWS V14.01,2013-04-07 00:37:00,
2013-04-06 17:42:00,66.5,54.8,30.09,NW,324,4.0,8.0,66,0.00,,CLR,0.00,VWS V14.01,2013-04-07 00:42:00,
2013-04-06 17:47:00,66.4,54.7,30.09,West,271,2.0,8.0,66,0.00,,CLR,0.00,VWS V14.01,2013-04-07 00:47:00,
2013-04-06 17:52:00,66.5,54.8,30.08,SSW,208,6.0,8.0,66,0.00,,CLR,0.00,VWS V14.01,2013-04-07 00:52:00,
2013-04-06 17:57:00,66.2,54.5,30.08,WSW,256,3.0,10.0,66,0.00,,CLR,0.00,VWS V14.01,2013-04-07 00:57:00,
2013-04-06 18:02:00,66.1,54.0,30.08,West,276,2.0,8.0,65,0.00,,CLR,0.00,VWS V14.01,2013-04-07 01:02:00,
2013-04-06 18:07:00,66.2,54.5,30.08,SSE,164,1.0,8.0,66,0.00,,CLR,0.00,VWS V14.01,2013-04-07 01:07:00,
2013-04-06 18:12:00,66.1,54.0,30.08,SSW,212,3.0,8.0,65,0.00,,CLR,0.00,VWS V14.01,2013-04-07 01:12:00,
2013-04-06 18:17:00,66.0,53.9,30.08,South,177,0.0,8.0,65,0.00,,CLR,0.00,VWS V14.01,2013-04-07 01:17:00,
2013-04-06 18:23:00,65.9,53.0,30.08,SE,133,3.0,8.0,63,0.00,,CLR,0.00,VWS V14.01,2013-04-07 01:23:00,
2013-04-06 18:28:00,65.6,52.7,30.08,WSW,246,5.0,10.0,63,0.00,,CLR,0.00,VWS V14.01,2013-04-07 01:28:00,
2013-04-06 18:33:00,65.4,52.9,30.07,SSE,153,1.0,5.0,64,0.00,,CLR,0.00,VWS V14.01,2013-04-07 01:33:00,
2013-04-06 18:38:00,65.1,52.6,30.07,South,174,5.0,6.0,64,0.00,,CLR,0.00,VWS V14.01,2013-04-07 01:38:00,
2013-04-06 18:43:00,64.9,52.0,30.07,West,271,3.0,7.0,63,0.00,,CLR,0.00,VWS V14.01,2013-04-07 01:43:00,
2013-04-06 18:48:00,64.9,52.0,30.07,South,173,2.0,7.0,63,0.00,,CLR,0.00,VWS V14.01,2013-04-07 01:48:00,
2013-04-06 18:53:00,64.7,51.0,30.07,WSW,246,7.0,8.0,61,0.00,,CLR,0.00,VWS V14.01,2013-04-07 01:53:00,
2013-04-06 18:58:00,64.6,50.9,30.07,WNW,298,1.0,8.0,61,0.00,,CLR,0.00,VWS V14.01,2013-04-07 01:58:00,
2013-04-06 19:03:00,64.5,50.8,30.07,WNW,293,1.0,5.0,61,0.00,,CLR,0.00,VWS V14.01,2013-04-07 02:03:00,
2013-04-06 19:08:00,64.5,50.3,30.07,WNW,302,3.0,6.0,60,0.00,,CLR,0.00,VWS V14.01,2013-04-07 02:08:00,
2013-04-06 19:13:00,64.4,50.7,30.07,WSW,240,2.0,9.0,61,0.00,,CLR,0.00,VWS V14.01,2013-04-07 02:13:00,
2013-04-06 19:18:00,64.2,50.5,30.07,WNW,288,3.0,9.0,61,0.00,,CLR,0.00,VWS V14.01,2013-04-07 02:18:00,
2013-04-06 19:23:00,64.2,50.0,30.07,NE,49,0.0,9.0,60,0.00,,CLR,0.00,VWS V14.01,2013-04-07 02:23:00,
2013-04-06 19:28:00,64.2,49.6,30.07,WSW,255,2.0,9.0,59,0.00,,CLR,0.00,VWS V14.01,2013-04-07 02:28:00,
2013-04-06 19:33:00,64.3,49.2,30.08,SW,233,0.0,3.0,58,0.00,,CLR,0.00,VWS V14.01,2013-04-07 02:33:00,
2013-04-06 19:38:00,64.3,48.3,30.08,NE,41,2.0,8.0,56,0.00,,CLR,0.00,VWS V14.01,2013-04-07 02:38:00,
2013-04-06 19:43:00,64.5,48.5,30.08,WNW,285,2.0,8.0,56,0.00,,CLR,0.00,VWS V14.01,2013-04-07 02:43:00,
2013-04-06 19:48:00,64.4,48.8,30.08,West,271,2.0,8.0,57,0.00,,CLR,0.00,VWS V14.01,2013-04-07 02:48:00,
2013-04-06 19:53:00,64.3,48.8,30.09,WSW,242,4.0,8.0,57,0.00,,CLR,0.00,VWS V14.01,2013-04-07 02:53:00,
2013-04-06 19:58:00,64.3,48.8,30.09,West,275,6.0,8.0,57,0.00,,CLR,0.00,VWS V14.01,2013-04-07 02:58:00,
2013-04-06 20:03:00,64.0,48.0,30.08,WSW,248,4.0,13.0,56,0.00,,FEW095,0.00,VWS V14.01,2013-04-07 03:03:00,
2013-04-06 20:08:00,64.2,47.2,30.08,WNW,302,9.0,16.0,54,0.00,,FEW095,0.00,VWS V14.01,2013-04-07 03:08:00,
2013-04-06 20:13:00,64.3,47.3,30.08,SW,229,3.0,17.0,54,0.00,,FEW095,0.00,VWS V14.01,2013-04-07 03:13:00,
2013-04-06 20:18:00,64.3,47.3,30.08,NW,305,6.0,17.0,54,0.00,,FEW095,0.00,VWS V14.01,2013-04-07 03:18:00,
2013-04-06 20:23:00,64.3,46.8,30.08,WSW,252,11.0,17.0,53,0.00,,FEW095,0.00,VWS V14.01,2013-04-07 03:23:00,
2013-04-06 20:28:00,64.4,46.9,30.08,NW,304,4.0,17.0,53,0.00,,FEW095,0.00,VWS V14.01,2013-04-07 03:28:00,
2013-04-06 20:33:00,64.1,47.1,30.08,West,278,8.0,11.0,54,0.00,,FEW095,0.00,VWS V14.01,2013-04-07 03:33:00,
2013-04-06 20:38:00,64.1,46.1,30.08,North,351,3.0,11.0,52,0.00,,FEW095,0.00,VWS V14.01,2013-04-07 03:38:00,
2013-04-06 20:43:00,63.9,47.0,30.08,WNW,283,5.0,11.0,54,0.00,,FEW095,0.00,VWS V14.01,2013-04-07 03:43:00,
2013-04-06 20:49:00,64.1,45.1,30.08,WNW,290,5.0,11.0,50,0.00,,FEW095,0.00,VWS V14.01,2013-04-07 03:49:00,
2013-04-06 20:54:00,64.1,45.6,30.09,WNW,288,1.0,11.0,51,0.00,,FEW095,0.00,VWS V14.01,2013-04-07 03:54:00,
2013-04-06 20:59:00,63.3,46.9,30.09,WSW,239,0.0,11.0,55,0.00,,FEW095,0.00,VWS V14.01,2013-04-07 03:59:00,
2013-04-06 21:00:00,63.3,46.9,30.09,SSE,153,0.0,11.0,55,0.00,,FEW095,0.00,VWS V14.01,2013-04-07 04:00:00,
2013-04-06 21:05:00,63.4,44.5,30.09,NNW,345,1.0,8.0,50,0.00,,CLR,0.00,VWS V14.01,2013-04-07 04:05:00,
2013-04-06 21:10:00,63.6,45.7,30.09,NNW,330,1.0,8.0,52,0.00,,CLR,0.00,VWS V14.01,2013-04-07 04:10:00,
2013-04-06 21:15:00,63.0,46.6,30.09,NNW,335,1.0,8.0,55,0.00,,CLR,0.00,VWS V14.01,2013-04-07 04:15:00,
2013-04-06 21:20:00,62.2,46.8,30.09,West,277,2.0,8.0,57,0.00,,CLR,0.00,VWS V14.01,2013-04-07 04:20:00,
2013-04-06 21:25:00,61.9,46.5,30.09,West,280,3.0,8.0,57,0.00,,CLR,0.00,VWS V14.01,2013-04-07 04:25:00,
2013-04-06 21:30:00,61.7,46.8,30.10,SSE,162,0.0,8.0,58,0.00,,CLR,0.00,VWS V14.01,2013-04-07 04:30:00,
2013-04-06 21:35:00,61.3,46.4,30.10,SE,134,0.0,6.0,58,0.00,,CLR,0.00,VWS V14.01,2013-04-07 04:35:00,
2013-04-06 21:40:00,61.2,45.9,30.10,WNW,288,2.0,6.0,57,0.00,,CLR,0.00,VWS V14.01,2013-04-07 04:40:00,
2013-04-06 21:45:00,61.1,45.8,30.10,West,269,0.0,6.0,57,0.00,,CLR,0.00,VWS V14.01,2013-04-07 04:45:00,
2013-04-06 21:51:00,60.9,46.0,30.10,SSE,162,0.0,6.0,58,0.00,,CLR,0.00,VWS V14.01,2013-04-07 04:51:00,
2013-04-06 21:56:00,60.8,45.5,30.11,SSE,160,0.0,6.0,57,0.00,,CLR,0.00,VWS V14.01,2013-04-07 04:56:00,
2013-04-06 22:01:00,60.8,45.5,30.11,SSW,203,0.0,6.0,57,0.00,,FEW110,0.00,VWS V14.01,2013-04-07 05:01:00,
2013-04-06 22:06:00,60.7,46.3,30.10,SE,146,3.0,4.0,59,0.00,,FEW110,0.00,VWS V14.01,2013-04-07 05:06:00,
2013-04-06 22:11:00,60.3,46.4,30.10,SSW,194,2.0,6.0,60,0.00,,FEW110,0.00,VWS V14.01,2013-04-07 05:11:00,
2013-04-06 22:16:00,59.9,46.9,30.11,SSW,203,0.0,6.0,62,0.00,,FEW110,0.00,VWS V14.01,2013-04-07 05:16:00,
2013-04-06 22:21:00,59.4,47.2,30.11,South,188,3.0,9.0,64,0.00,,FEW110,0.00,VWS V14.01,2013-04-07 05:21:00,
2013-04-06 22:26:00,58.8,47.5,30.11,SSE,162,2.0,9.0,66,0.00,,FEW110,0.00,VWS V14.01,2013-04-07 05:26:00,
2013-04-06 22:31:00,58.4,47.9,30.11,South,190,3.0,4.0,68,0.00,,FEW110,0.00,VWS V14.01,2013-04-07 05:31:00,
2013-04-06 22:36:00,58.2,47.7,30.11,South,177,2.0,7.0,68,0.00,,FEW110,0.00,VWS V14.01,2013-04-07 05:36:00,
2013-04-06 22:41:00,58.2,47.7,30.11,SSW,194,4.0,8.0,68,0.00,,FEW110,0.00,VWS V14.01,2013-04-07 05:41:00,
2013-04-06 22:46:00,58.3,47.4,30.11,SSE,165,4.0,8.0,67,0.00,,FEW110,0.00,VWS V14.01,2013-04-07 05:46:00,
2013-04-06 22:52:00,58.1,48.0,30.11,South,177,4.0,8.0,69,0.00,,FEW110,0.00,VWS V14.01,2013-04-07 05:52:00,
2013-04-06 22:57:00,57.9,47.4,30.11,SSW,207,1.0,8.0,68,0.00,,FEW110,0.00,VWS V14.01,2013-04-07 05:57:00,
2013-04-06 23:02:00,58.1,46.4,30.11,SW,224,5.0,7.0,65,0.00,,OVC100,0.00,VWS V14.01,2013-04-07 06:02:00,
2013-04-06 23:07:00,58.3,47.4,30.11,SSW,203,4.0,8.0,67,0.00,,OVC100,0.00,VWS V14.01,2013-04-07 06:07:00,
2013-04-06 23:12:00,57.8,47.7,30.12,South,177,5.0,8.0,69,0.00,,OVC100,0.00,VWS V14.01,2013-04-07 06:12:00,
2013-04-06 23:17:00,57.5,47.8,30.12,SSE,151,1.0,8.0,70,0.00,,OVC100,0.00,VWS V14.01,2013-04-07 06:17:00,
2013-04-06 23:22:00,57.3,48.0,30.12,SSE,147,3.0,8.0,71,0.00,,OVC100,0.00,VWS V14.01,2013-04-07 06:22:00,
2013-04-06 23:27:00,57.1,48.2,30.11,SE,143,3.0,8.0,72,0.00,,OVC100,0.00,VWS V14.01,2013-04-07 06:27:00,
2013-04-06 23:32:00,56.7,48.2,30.12,SE,129,2.0,7.0,73,0.00,,OVC100,0.00,VWS V14.01,2013-04-07 06:32:00,
2013-04-06 23:37:00,56.2,48.4,30.12,SSW,211,4.0,7.0,75,0.00,,OVC100,0.00,VWS V14.01,2013-04-07 06:37:00,
2013-04-06 23:42:00,55.7,48.3,30.12,SE,132,3.0,7.0,76,0.00,,OVC100,0.00,VWS V14.01,2013-04-07 06:42:00,
2013-04-06 23:47:00,55.4,48.3,30.11,ESE,107,1.0,7.0,77,0.00,,OVC100,0.00,VWS V14.01,2013-04-07 06:47:00,
2013-04-06 23:52:00,55.1,48.0,30.11,South,173,2.0,7.0,77,0.00,,OVC100,0.00,VWS V14.01,2013-04-07 06:52:00,
2013-04-06 23:57:00,55.0,48.3,30.11,SE,141,4.0,10.0,78,0.00,,OVC100,0.00,VWS V14.01,2013-04-07 06:57:00,